Regional Weather Roundup
Issued by NWS

Home | Current Version | Previous Version | Text Only | Print | Product List | Glossary On
Versions: 1 2 3 4 5 6 7 8 9 10 11 12 13 14 15 16 17 18 19 20 21 22 23 24 25 26 27 28 29 30 31 32 33 34 35 36 37 38 39 40 41 42 43 44 45 46 47 48 49 50
000
ASUS44 KFWD 300901
RWRTX
NORTH TEXAS HOURLY WEATHER ROUNDUP
NATIONAL WEATHER SERVICE FORT WORTH TX
400 AM CDT THU JUL 30 2015

NOTE: "FAIR" INDICATES FEW OR NO CLOUDS BELOW 12,000 FEET WITH NO
SIGNIFICANT WEATHER AND/OR OBSTRUCTIONS TO VISIBILITY.

TXZ118-119-301000-
DALLAS/FORT WORTH METROPLEX

CITY           SKY/WX    TMP DP  RH WIND       PRES   REMARKS
DFW AIRPORT    CLEAR     82  66  58 CALM      30.03F
DALLAS LOVE    CLEAR     84  64  50 SE5       30.03S
FTW MEACHAM    CLEAR     85  64  49 CALM      30.04S
DAL-EXECUTIVE  CLEAR     77  66  68 SE3       30.04S
FTW-ALLIANCE   CLEAR     76  66  71 CALM      30.04S
FTW-NAS-JRB    CLEAR     84  66  54 CALM      30.04F
ARLINGTON      CLEAR     76  68  76 CALM      30.04S
GRAND PRAIRIE  CLEAR     82  67  60 CALM      30.05S
ADDISON        CLEAR     86  65  48 SE3       30.06S
MESQUITE       CLEAR     77  65  65 CALM      30.04S
LANCASTER      CLEAR     75  60  59 CALM      30.05S
$$

TXZ091>094-102>105-117-120-121-131>134-301000-
NORTH CENTRAL TEXAS

CITY           SKY/WX    TMP DP  RH WIND       PRES   REMARKS
BOWIE          CLEAR     73  67  82 CALM      30.07S
DENTON         CLEAR     76  68  76 CALM      30.04S
MCKINNEY       CLEAR     76  69  79 CALM      30.05S
TERRELL        CLEAR     77  68  73 CALM      30.04S
WAXAHACHIE     CLEAR     75  67  77 CALM      30.05F
CLEBURNE         N/A     81  68  65 CALM      30.07S
$$

TXZ083>090-098>101-113>116-127>130-139>142-154-155-301000-
WESTERN NORTH TEXAS

CITY           SKY/WX    TMP DP  RH WIND       PRES   REMARKS
WICHITA FALLS  CLEAR     76  66  71 CALM      30.06R
WF-KICKAPOO    CLEAR     79  66  65 CALM      30.07S
VERNON         CLEAR     77  64  63 NE3       30.08R
ABILENE        CLEAR     77  62  59 SE7       30.09R
ABILENE-DYESS  CLEAR     77  64  63 S3        30.08R
BRECKENRIDGE   CLEAR     80  63  55 S7        30.06S
MINERAL WELLS  CLEAR     77  65  66 SE8       30.05S
STEPHENVILLE   CLEAR     76  64  64 CALM      30.10S
COMANCHE       CLEAR     76  66  72 S6        30.08S
COLEMAN        CLEAR     75  64  67 S3        30.10R
BRADY          CLEAR     79  66  65 SE3       30.09S
$$

TXZ143>147-156>162-174-175-301000-
CENTRAL TEXAS

CITY           SKY/WX    TMP DP  RH WIND       PRES   REMARKS
WACO           CLEAR     77  68  73 S7        30.04R
WACO-MCGREGOR  CLEAR     79  64  61 CALM      30.06R
CORSICANA      CLEAR     78  69  73 S6        30.05S
MEXIA          CLEAR     76  68  75 SE10      30.04S
HEARNE         CLEAR     75  71  87 CALM      30.05S
TEMPLE         CLEAR     77  64  65 SE3       30.05S
KILLEEN        CLEAR     81  69  67 VRB6      30.05S
KILLEEN-SKYLRK CLEAR     79  66  65 S3        30.04S
FORT HOOD      CLEAR     81  69  68 VRB3      30.04S
HAMILTON       CLEAR     76  65  66 MISG      30.08S
LAMPASAS       CLEAR     78  69  72 CALM      30.06S
$$

TXZ095>097-106>112-122>126-135>138-148>153-164>167-301000-
EAST TEXAS

CITY           SKY/WX    TMP DP  RH WIND       PRES   REMARKS
PARIS          CLEAR     79  68  69 N5        30.05S
SULPHUR SPRNGS CLEAR     79  70  73 CALM      30.06S
GILMER         CLEAR     75  70  84 CALM      30.03S
MINEOLA        CLEAR     75  73  94 CALM      30.05S
TYLER          CLEAR     81  69  67 CALM      30.03F
LONGVIEW       CLEAR     80  74  81 CALM      30.02F
MARSHALL       CLEAR     78  74  86 CALM      30.04S
ATHENS         CLEAR     73  70  88 CALM      30.03S
PALESTINE      CLEAR     75  70  84 CALM      30.05S
JACKSONVILLE   CLEAR     83  65  55 SW3       30.07S
CENTER         FAIR      78  72  82 CALM      30.01S
NACOGDOCHES    CLEAR     73  70  88 CALM      30.02S
LUFKIN         CLEAR     78  71  79 NW3       30.02S
$$

SUPPLEMENTAL OBSERVATIONS (CENTRAL)

CITY           SKY/WX    TMP DP  RH WIND       PRES   REMARKS
$$

SUPPLEMENTAL OBSERVATIONS (WEST)

CITY           SKY/WX    TMP DP  RH WIND       PRES   REMARKS
$$

SUPPLEMENTAL OBSERVATIONS (EAST)

CITY           SKY/WX    TMP DP  RH WIND       PRES   REMARKS
$$

SUPPLEMENTAL OBSERVATIONS ARE A COLLECTION OF AUTOMATED INSTRUMENTS
THAT ARE MAINTAINED BY A VARIETY OF FEDERAL AND STATE AGENCIES.
CERTAIN ELEMENTS...SUCH AS HUMIDITY VALUES AND SUSTAINED WIND
SPEEDS...MAY BE APPROXIMATED.




USA.gov is the U.S. government's official web portal to all federal, state and local government web resources and services.